Kalaeloa, HI

7:30 AM HST on October 17, 2017 (GMT -1000)
Kalaeloa (John Rodgers Field)

Weather History for PHJR - February, 2014

Change the Weather History Date:

Monday, February 24, 2014

  Actual Average (PHHI) Record (PHHI)
Temperature  
Mean Temperature 74 °F -  
Max Temperature 82 °F 74 °F 80 °F (2004)
Min Temperature 64 °F 61 °F 55 °F (2009)
Cooling Degree Days 9    
Growing Degree Days 24 (Base 50)    
Moisture  
Dew Point 61 °F    
Average Humidity 67    
Maximum Humidity 87    
Minimum Humidity 44    
Precipitation  
Precipitation 0.00 in - - ()
Sea Level Pressure  
Sea Level Pressure 29.98 in    
Wind  
Wind Speed 5 mph (North)    
Max Wind Speed 10 mph    
Max Gust Speed 21 mph    
Visibility 10 miles    
Events      
Averages and records for this station are not official NWS values.
T = Trace of Precipitation, MM = Missing Value Source: NWS Daily Summary

Daily Weather History Graph

Daily Weather History Graph

Search for Another Location

Airport or City:

Trip Planner

Search our weather history database for the weather conditions in past years. The results will help you decide how hot, cold, wet, or windy it might be!

Date:

Astronomy

Feb. 24, 2014 Rise Set
Actual Time 6:56 AM HST 6:34 PM HST
Civil Twilight 6:34 AM HST 6:57 PM HST
Nautical Twilight 6:08 AM HST 7:23 PM HST
Astronomical Twilight 5:42 AM HST 7:48 PM HST
Moon 2:44 AM HST (2/24) 2:08 PM HST (2/24)
Length of Visible Light 12h 23m
Length of Day
11h 38m
Waning Crescent, 26% of the Moon is Illuminated
Feb 24
Waning Crescent
Feb 28
New
Mar 8
First Quarter
Mar 16
Full
Mar 23
Last Quarter

Hourly Weather History & Observations

Time (HST) Temp. Heat Index Dew Point Humidity Pressure Visibility Wind Dir Wind Speed Gust Speed Precip Events Conditions
12:53 AM 71.1 °F - 64.9 °F 81% 30.02 in 10.0 mi Variable 5.8 mph - N/A   Clear
1:53 AM 71.1 °F - 64.0 °F 78% 30.00 in 10.0 mi Variable 6.9 mph - N/A   Clear
2:00 AM 69.8 °F - 64.4 °F 83% 29.98 in 10.0 mi Variable 4.6 mph - N/A   Partly Cloudy
2:53 AM 69.1 °F - 63.0 °F 81% 29.99 in 10.0 mi Variable 3.5 mph - N/A   Clear
3:53 AM 69.1 °F - 63.0 °F 81% 29.98 in 10.0 mi Variable 3.5 mph - N/A   Clear
4:53 AM 69.1 °F - 63.0 °F 81% 29.98 in 10.0 mi North 3.5 mph - N/A   Clear
5:53 AM 66.9 °F - 63.0 °F 87% 29.99 in 10.0 mi Variable 3.5 mph - N/A   Clear
6:53 AM 66.0 °F - 62.1 °F 87% 30.01 in 10.0 mi Variable 3.5 mph - N/A   Clear
7:53 AM 71.1 °F - 63.0 °F 75% 30.03 in 10.0 mi Variable 5.8 mph - N/A   Clear
8:53 AM 73.9 °F - 62.1 °F 66% 30.04 in 10.0 mi Variable 4.6 mph - N/A   Clear
9:53 AM 79.0 °F - 61.0 °F 54% 30.04 in 10.0 mi NE 8.1 mph - N/A   Clear
10:53 AM 80.1 °F 80.7 °F 59.0 °F 48% 30.04 in 10.0 mi Variable 6.9 mph 17.3 mph N/A   Clear
11:53 AM 82.9 °F 82.8 °F 59.0 °F 44% 30.02 in 10.0 mi Variable 5.8 mph - N/A   Partly Cloudy
12:53 PM 80.1 °F 81.1 °F 61.0 °F 52% 29.99 in 10.0 mi SSW 8.1 mph - N/A   Partly Cloudy
1:53 PM 81.0 °F 81.7 °F 61.0 °F 50% 29.96 in 10.0 mi WNW 5.8 mph - N/A   Scattered Clouds
2:53 PM 82.0 °F 82.4 °F 60.1 °F 47% 29.94 in 10.0 mi NNW 6.9 mph - N/A   Partly Cloudy
3:53 PM 82.0 °F 82.1 °F 59.0 °F 45% 29.93 in 10.0 mi Variable 3.5 mph - N/A   Clear
4:53 PM 79.0 °F - 57.0 °F 47% 29.93 in 10.0 mi North 10.4 mph 17.3 mph N/A   Clear
5:53 PM 75.0 °F - 57.9 °F 55% 29.93 in 10.0 mi NNE 9.2 mph 20.7 mph N/A   Clear
6:53 PM 71.1 °F - 60.1 °F 68% 29.94 in 10.0 mi Variable 6.9 mph - N/A   Partly Cloudy
7:53 PM 70.0 °F - 59.0 °F 68% 29.96 in 10.0 mi ENE 6.9 mph - N/A   Clear
8:53 PM 69.1 °F - 59.0 °F 70% 29.98 in 10.0 mi Variable 5.8 mph - N/A   Clear
9:53 PM 68.0 °F - 59.0 °F 73% 29.98 in 10.0 mi Variable 3.5 mph - N/A   Clear
10:53 PM 66.9 °F - 59.0 °F 76% 29.98 in 10.0 mi Variable 4.6 mph - N/A   Clear
11:53 PM 64.9 °F - 60.1 °F 84% 29.97 in 10.0 mi Calm Calm - N/A   Clear